DW3649 Weather Reports


Display with metric or nautical units.
time (UTC)temp
F
wind
direction
speed
MPH
gust
MPH
rain 1hr
in
rain 24hr
in
rain mn
in
humidity
%
barometer
mb
20260506131514 73 171 7.0 0.0 0.00 0.00 0.00 41 1013.9
20260506130010 73 144 7.0 0.0 0.00 0.00 0.00 40 1013.9
20260506124508 72 163 7.0 0.0 0.00 0.00 0.00 40 1014.0
20260506123008 73 196 6.0 0.0 0.00 0.00 0.00 39 1014.0
20260506121508 73 176 6.0 0.0 0.00 0.00 0.00 38 1014.2
20260506120007 72 161 6.0 0.0 0.00 0.00 0.00 36 1014.3
20260506114507 73 198 6.0 0.0 0.00 0.00 0.00 37 1014.4
20260506113007 72 131 6.0 0.0 0.00 0.00 0.00 41 1014.5
20260506111508 72 146 5.0 0.0 0.00 0.00 0.00 40 1014.5
20260506110006 71 213 7.0 0.0 0.00 0.00 0.00 41 1014.6
20260506104503 71 123 7.0 0.0 0.00 0.00 0.00 43 1014.6
20260506103003 73 209 5.0 0.0 0.00 0.00 0.00 40 1014.6
20260506101606 72 138 6.0 0.0 0.00 0.00 0.00 41 1014.6
20260506100104 72 161 6.0 0.0 0.00 0.00 0.00 42 1014.7
20260506094600 72 184 3.0 0.0 0.00 0.00 0.00 42 1014.7
20260506093105 72 157 5.0 0.0 0.00 0.00 0.00 43 1014.7
20260506091557 72 117 4.0 0.0 0.00 0.00 0.00 42 1014.8
20260506090100 71 138 4.0 0.0 0.00 0.00 0.00 43 1014.8
20260506084553 71 173 4.0 0.0 0.00 0.00 0.00 42 1014.7
20260506083051 70 198 4.0 0.0 0.00 0.00 0.00 44 1014.8
20260506081551 70 224 5.0 0.0 0.00 0.00 0.00 44 1014.7
20260506073047 70 125 3.0 0.0 0.00 0.00 0.00 45 1014.4
20260506071600 70 117 1.0 0.0 0.00 0.00 0.00 45 1014.3
20260506061543 72 67 0.0 0.0 0.00 0.00 0.00 39 1014.3
20260506044525 63 67 0.0 0.0 0.00 0.00 0.00 55 1013.8
20260506043022 62 67 0.0 0.0 0.00 0.00 0.00 57 1013.9
20260506041528 61 67 0.0 0.0 0.00 0.00 0.00 58 1013.7
20260506040025 60 67 0.0 0.0 0.00 0.00 0.00 59 1013.6
20260506034520 60 67 0.0 0.0 0.00 0.00 0.00 59 1013.4
20260506033026 60 67 0.0 0.0 0.00 0.00 0.00 59 1013.3
20260506031523 61 67 0.0 0.0 0.00 0.00 0.00 59 1013.3
20260506030023 61 67 0.0 0.0 0.00 0.00 0.00 59 1013.2
20260506024517 61 67 0.0 0.0 0.00 0.00 0.00 59 1013.2
20260506023015 61 68 1.0 0.0 0.00 0.00 0.00 60 1013.3
20260506021515 60 68 0.0 0.0 0.00 0.00 0.00 61 1013.3
20260506020018 60 68 0.0 0.0 0.00 0.00 0.00 62 1013.4
20260506014517 61 105 0.0 0.0 0.00 0.00 0.00 62 1013.5
20260506013022 62 119 0.0 0.0 0.00 0.00 0.00 61 1013.6
20260506011508 62 119 0.0 0.0 0.00 0.00 0.00 62 1013.5
20260506010007 62 119 0.0 0.0 0.00 0.00 0.00 61 1013.6
20260506004513 62 119 0.0 0.0 0.00 0.00 0.00 61 1013.6
20260506003006 63 119 3.0 0.0 0.00 0.00 0.00 60 1013.6
20260506001505 62 117 1.0 0.0 0.00 0.00 0.00 61 1013.7
20260506000015 62 117 0.0 0.0 0.00 0.00 0.00 61 1013.7
20260505234510 63 117 0.0 0.0 0.00 0.00 0.00 61 1013.8
20260505233003 63 116 3.0 0.0 0.00 0.00 0.00 60 1013.9
20260505231502 62 105 1.0 0.0 0.00 0.00 0.00 58 1014.0
20260505230118 62 105 0.0 0.0 0.00 0.00 0.00 57 1014.0
20260505224557 62 105 1.0 0.0 0.00 0.00 0.00 57 1014.2
20260505223100 62 105 0.0 0.0 0.00 0.00 0.00 56 1014.2
20260505221559 62 105 0.0 0.0 0.00 0.00 0.00 55 1014.2
20260505220056 62 105 0.0 0.0 0.00 0.00 0.00 55 1014.1
20260505214605 62 105 0.0 0.0 0.00 0.00 0.00 54 1014.1
20260505213058 63 150 0.0 0.0 0.00 0.00 0.00 54 1014.2
20260505211557 63 150 0.0 0.0 0.00 0.00 0.00 54 1014.3
20260505210053 63 150 0.0 0.0 0.00 0.00 0.00 53 1014.3
20260505204549 63 150 0.0 0.0 0.00 0.00 0.00 52 1014.2
20260505203050 64 150 0.0 0.0 0.00 0.00 0.00 52 1014.4
20260505201553 64 150 0.0 0.0 0.00 0.00 0.00 51 1014.3
20260505200047 65 150 0.0 0.0 0.00 0.00 0.00 52 1014.3
20260505194546 65 150 0.0 0.0 0.00 0.00 0.00 51 1014.3
20260505193050 65 150 0.0 0.0 0.00 0.00 0.00 51 1014.3
20260505191552 66 150 0.0 0.0 0.00 0.00 0.00 51 1014.3
20260505184559 66 150 0.0 0.0 0.00 0.00 0.00 49 1014.0
20260505183050 67 150 0.0 0.0 0.00 0.00 0.00 48 1013.9
20260505181544 67 150 1.0 0.0 0.00 0.00 0.00 47 1013.7
20260505180049 68 150 0.0 0.0 0.00 0.00 0.00 45 1013.6
20260505174543 69 150 1.0 0.0 0.00 0.00 0.00 44 1013.5
20260505173044 69 150 1.0 0.0 0.00 0.00 0.00 42 1013.3
20260505171543 70 150 1.0 0.0 0.00 0.00 0.00 41 1013.4
20260505170041 71 150 2.0 0.0 0.00 0.00 0.00 41 1013.4
20260505164541 71 150 4.0 0.0 0.00 0.00 0.00 40 1013.4
20260505163040 72 142 4.0 0.0 0.00 0.00 0.00 36 1013.4
20260505161539 73 138 3.0 0.0 0.00 0.00 0.00 35 1013.4
20260505153038 73 134 4.0 0.0 0.00 0.00 0.00 34 1013.3
20260505151536 73 130 4.0 0.0 0.00 0.00 0.00 33 1013.3